Current weather by "City, St" or "zip code"  
 

Current Conditions: Oxford, University-Oxford Airport, MS

Fair


73.0 F

Last Updated on Sep 18 2020, 10:55 am CDT
Humidity: 69%
Wind Speed: NE 11.5 mph
Barometer 30.10 in
Dewpoint: 62.6 F
Visibility: 9.00 mi
Precip: --
Heat Index: NA
Wind Chill: NA
Current conditions at:

Oxford, University-Oxford Airport, MS (KUOX)

Lat: 34.38444 Lon: 89.53556

Local Radar Image active severe weather and emergency alerts image image weather storm and storm spotter reports image weather observation monitoring service image
Local
Radar
Active
Alerts
Storm Reports Obs
Monitoring

Sign-up For Email & Text Message Weather Alert Notification Services



Advertise Here

Observation History for Oxford, University-Oxford Airport, MS


Time Wind
(mph)
Vis
(mi)
Weather Precip (in) Temperature (F) Relative
Humidity
Wind
Chill
(F)
Heat
Index
(F)
Pressure
Air Dwpt altimeter
(in)
sea level
(mb)
Rmks
10:55 am CDT NE 11.5 9.00 Fair -- 73.0 62.6 69% NA NA 30.10 M
9:55 am CDT NE 10.4 10.00 Fair -- 70.0 62.6 78% NA NA 30.10 M
8:55 am CDT NE 10.4 G 16.1 8.00 Fair -- 66.0 64.4 94% NA NA 30.08 M
7:55 am CDT N 4.6 7.00 Fair -- 64.0 64.4 100% NA NA 30.07 M
6:55 am CDT N 5.8 8.00 Fair -- 63.0 62.6 100% 63 NA 30.05 M
5:55 am CDT N 4.6 10.00 Fair -- 63.0 62.6 100% 64 NA 30.03 M
4:55 am CDT N 5.8 10.00 Fair -- 64.0 62.6 94% NA NA 30.02 M
3:55 am CDT N 5.8 10.00 Fair -- 64.0 62.6 94% NA NA 30.00 M
2:55 am CDT N 0.0 10.00 Fair -- 66.0 62.6 88% NA NA 29.99 M
1:55 am CDT 4.6 10.00 Fair -- 66.0 60.8 83% NA NA 30.00 M
12:55 am CDT N 0.0 10.00 Fair -- 66.0 60.8 83% NA NA 29.99 M
11:55 pm CDT N 4.6 10.00 Fair -- 66.0 59.0 78% NA NA 29.99 M
10:55 pm CDT 3.5 10.00 Fair -- 68.0 59.0 73% NA NA 29.99 M
9:55 pm CDT N 3.5 10.00 Fair -- 70.0 59.0 69% NA NA 29.98 M
8:55 pm CDT N 4.6 10.00 Fair -- 70.0 60.8 73% NA NA 29.98 M
7:55 pm CDT N 8.1 10.00 Fair -- 72.0 60.8 69% NA NA 29.95 M
6:55 pm CDT N 9.2 10.00 Fair -- 73.0 62.6 69% NA NA 29.94 M
5:55 pm CDT N 8.1 G 13.8 10.00 Fair -- 77.0 66.2 69% NA NA 29.92 M
4:55 pm CDT 5.8 10.00 Fair -- 82.0 66.2 58% NA 84 29.91 M
3:55 pm CDT N 9.2 G 15.0 9.00 Fair -- 86.0 66.2 52% NA 88 29.91 M
2:55 pm CDT N 9.2 G 19.6 9.00 A Few Clouds -- 84.0 68.0 58% NA 87 29.92 M
1:55 pm CDT 6.9 G 12.7 9.00 A Few Clouds -- 84.0 68.0 58% NA 87 29.93 M
12:55 pm CDT N 10.4 G 17.3 8.00 Partly Cloudy -- 82.0 68.0 62% NA 85 29.95 M
11:55 am CDT N 8.1 G 16.1 8.00 Mostly Cloudy -- 82.0 68.0 62% NA 85 29.96 M

Regional Weather Observation


Oxford, University-Oxford Airport, MS (KUOX)

Fair
73.0 F

Tunica, Tunica Municipal Airport, MS (KUTA)

Fair
73.0 F

Memphis International Airport, TN (KMEM)

A Few Clouds
76.0 F

Fletcher Field, Clarksdale, MS (KCKM)

NULL
77.0 F

Millington, Millington Municipal Airport, TN (KNQA)

Partly Cloudy
73.0 F

West Memphis, West Memphis Municipal Airport, AR (KAWM)

Partly Cloudy
75.0 F